Tracking 27172 objects as of 2-Apr-2023
HD Live streaming from Space Station
objects crossing your sky now

ATLAS H R/B

Track ATLAS H R/B now!
10-day predictions


NORAD ID: 16592
Int'l Code: 1986-014B
Perigee: 721.3 km
Apogee: 1,298.7 km
Inclination: 63.3 °
Period: 105.2 minutes
Semi major axis: 7381 km
RCS: Unknown
Launch date: February 9, 1986
Source: United States (US)
Launch site: AIR FORCE WESTERN TEST RANGE (AFWTR)

Note: This is a ROCKET BODY
Your satellite tracking list
Your tracking list is empty




NASA's NSSDC Master Catalog

Two Line Element Set (TLE):
1 16592U 86014B   23092.16050734  .00001832  00000-0  13005-2 0  9999
2 16592  63.3284 121.8579 0391193 130.1768 233.4220 13.69083373199442
Source of the keplerian elements: McCants